Regional Weather Roundup
Issued by NWS State College, PA

Home | Current Version | Previous Version | Graphics & Text | Print | Product List | Glossary On
Versions: 1 2 3 4 5 6 7 8 9 10 11 12 13 14 15 16 17 18 19 20 21 22 23 24 25 26 27 28 29 30 31 32 33 34 35 36 37 38 39 40 41 42 43 44 45 46 47 48 49 50
000
ASUS41 KCTP 252103
RWRCTP

REGIONAL WEATHER ROUNDUP
NATIONAL WEATHER SERVICE STATE COLLEGE PA
400 PM EST SUN JAN 25 2015

Note: "fair" indicates few or no clouds below 12,000 feet with no
significant weather and/or obstructions to visibility.

* = STATION THAT DOES NOT REPORT PRECIPITATION /E.G. RAIN...SNOW...ETC/
    THUNDER OR FOG.

PAZ002>004-007>009-013>016-020>023-029>032-252200-
WESTERN PENNSYLVANIA

CITY           SKY/WX    TMP DP  RH WIND       PRES   REMARKS
ERIE           PTSUNNY   20  12  71 NE15      29.89S WCI   6
MEADVILLE      CLOUDY    24  13  62 NE7       29.80R
FRANKLIN*      CLOUDY    27  18  69 CALM      29.80S
NEW CASTLE     LGT SNOW  29  26  88 NE7       29.81S FOG
BEAVER COUNTY  LGT SNOW  32  30  93 NE3       29.77S
BUTLER*        CLOUDY    30  27  86 NE8       29.80R
PITTSBURGH INT LGT SNOW  34  33  96 N7        29.76F FOG
PITTSBURGH     FOG       34  30  85 CALM      29.75F VSB 3/4
INDIANA*       CLOUDY    32  30  93 E3        29.81S FOG
LATROBE        LGT RAIN  30  30 100 CALM      29.79S FOG
WASHINGTON CO* CLOUDY    34  32  93 E5        29.77S
$$

PAZ004>006-010>012-017>019-024>028-033>037-041-042-045-046-049>053-252200-
CENTRAL PENNSYLVANIA

CITY           SKY/WX    TMP DP  RH WIND       PRES   REMARKS
BRADFORD       PTSUNNY   25   6  44 NE3       29.76R
DUBOIS         CLOUDY    29  21  72 CALM      29.76S
CLEARFIELD     CLOUDY    32  22  66 N3        29.78S
JOHNSTOWN      LGT SNOW  31  29  92 SW5       29.73R FOG
ALTOONA        CLOUDY    35  32  88 CALM      29.77R
STATE COLLEGE  CLOUDY    34  27  75 CALM      29.79R
WILLIAMSPORT   CLOUDY    36  12  37 N6        29.82R
SELINSGROVE    CLOUDY    38  26  62 N3        29.82R
FT INDIANTOWN  CLOUDY    39  31  73 N8        29.81R
CAPITAL CITY   CLOUDY    40  32  73 W6        29.81R
HARRISBURG     CLOUDY    37  32  82 NW6       29.81R
YORK           CLOUDY    38  32  79 CALM      29.80R
$$

PAZ038>040-043-044-047-048-054-055-060>062-067>071-252200-
EASTERN PENNSYLVANIA

CITY           SKY/WX    TMP DP  RH WIND       PRES   REMARKS
SCRANTON       MOSUNNY   30   8  39 N13       29.81S
MOUNT POCONO   PTSUNNY   28   8  43 NW9       29.75R
ALLENTOWN      CLOUDY    39  24  55 NW5       29.81R
QUAKERTOWN*    NOT AVBL
READING        CLOUDY    39  29  67 N5        29.81R
LANCASTER      CLOUDY    38  31  76 NW5       29.81R
COATESVILLE    CLOUDY    39  34  81 NW7       29.81R
POTTSTOWN      CLOUDY    39  31  72 NW3       29.82S
BLUE BELL      CLOUDY    43  32  65 NW3       29.81R
DOYLESTOWN     CLOUDY    38  29  70 NW6       29.81R
WILLOW GROVE   NOT AVBL
NORTH PHILA    PTSUNNY   45  29  53 NW7       29.83S
PHILADELPHIA   CLOUDY    45  31  58 W12       29.83R
$$


USA.gov is the U.S. government's official web portal to all federal, state and local government web resources and services.